| time (UTC) | temp C | wind direction | speed KPH | gust KPH | rain 1hr cm | rain 24hr cm | rain mn cm | humidity % | barometer mb |
| 20260506134547 | 21 | 187 | 8.0 | 14.5 | 0.03 | 0.03 | 0.03 | 100 | 1006.9 |
| 20260506134046 | 21 | 207 | 6.4 | 19.3 | 0.03 | 0.03 | 0.03 | 100 | 1006.6 |
| 20260506133546 | 21 | 175 | 11.3 | 19.3 | 0.03 | 0.03 | 0.03 | 100 | 1006.5 |
| 20260506133048 | 21 | 196 | 6.4 | 9.7 | 0.00 | 0.00 | 0.00 | 100 | 1006.4 |
| 20260506132550 | 21 | 173 | 4.8 | 11.3 | 0.00 | 0.00 | 0.00 | 100 | 1006.2 |
| 20260506132045 | 21 | 211 | 6.4 | 11.3 | 0.00 | 0.00 | 0.00 | 100 | 1006.2 |
| 20260506131545 | 21 | 196 | 6.4 | 14.5 | 0.00 | 0.00 | 0.00 | 100 | 1006.1 |
| 20260506131045 | 21 | 201 | 8.0 | 14.5 | 0.00 | 0.00 | 0.00 | 100 | 1006.1 |
| 20260506130546 | 21 | 210 | 3.2 | 11.3 | 0.00 | 0.00 | 0.00 | 100 | 1006.1 |
| 20260506130018 | 21 | 200 | 6.4 | 14.5 | 0.00 | 0.00 | 0.00 | 100 | 1006.2 |
| 20260506125517 | 21 | 219 | 6.4 | 11.3 | 0.00 | 0.00 | 0.00 | 100 | 1006.1 |
| 20260506125017 | 21 | 213 | 3.2 | 9.7 | 0.00 | 0.00 | 0.00 | 100 | 1006.1 |
| 20260506124517 | 21 | 215 | 6.4 | 9.7 | 0.00 | 0.00 | 0.00 | 100 | 1006.0 |
| 20260506124019 | 21 | 219 | 4.8 | 14.5 | 0.00 | 0.00 | 0.00 | 100 | 1005.9 |
| 20260506123520 | 21 | 188 | 8.0 | 17.7 | 0.00 | 0.00 | 0.00 | 100 | 1005.8 |
| 20260506123017 | 21 | 188 | 8.0 | 19.3 | 0.00 | 0.00 | 0.00 | 100 | 1005.8 |
| 20260506122517 | 21 | 215 | 11.3 | 25.7 | 0.00 | 0.00 | 0.00 | 100 | 1005.9 |
| 20260506122015 | 21 | 184 | 14.5 | 25.7 | 0.00 | 0.00 | 0.00 | 100 | 1005.8 |
| 20260506121515 | 21 | 216 | 11.3 | 20.9 | 0.00 | 0.00 | 0.00 | 100 | 1005.7 |
| 20260506121014 | 21 | 184 | 9.7 | 20.9 | 0.00 | 0.00 | 0.00 | 100 | 1005.6 |
| 20260506120513 | 21 | 207 | 9.7 | 20.9 | 0.00 | 0.00 | 0.00 | 100 | 1005.8 |
| 20260506120013 | 21 | 170 | 11.3 | 19.3 | 0.00 | 0.00 | 0.00 | 100 | 1005.6 |
| 20260506115512 | 21 | 167 | 11.3 | 17.7 | 0.00 | 0.00 | 0.00 | 100 | 1005.6 |
| 20260506115011 | 21 | 171 | 9.7 | 14.5 | 0.00 | 0.00 | 0.00 | 100 | 1005.7 |
| 20260506114510 | 21 | 121 | 8.0 | 17.7 | 0.00 | 0.00 | 0.00 | 100 | 1005.7 |
| 20260506114010 | 21 | 181 | 6.4 | 17.7 | 0.00 | 0.00 | 0.00 | 100 | 1005.7 |
| 20260506113510 | 21 | 172 | 8.0 | 16.1 | 0.00 | 0.00 | 0.00 | 100 | 1005.8 |
| 20260506113010 | 21 | 150 | 8.0 | 16.1 | 0.00 | 0.00 | 0.00 | 100 | 1005.8 |
| 20260506112512 | 21 | 174 | 11.3 | 19.3 | 0.00 | 0.00 | 0.00 | 100 | 1005.8 |
| 20260506112009 | 21 | 165 | 12.9 | 19.3 | 0.00 | 0.00 | 0.00 | 100 | 1005.9 |
| 20260506111520 | 21 | 155 | 8.0 | 19.3 | 0.00 | 0.00 | 0.00 | 100 | 1006.0 |
| 20260506111008 | 21 | 173 | 9.7 | 19.3 | 0.00 | 0.00 | 0.00 | 100 | 1006.0 |
| 20260506110508 | 21 | 161 | 9.7 | 17.7 | 0.00 | 0.00 | 0.00 | 100 | 1006.0 |
| 20260506110010 | 21 | 175 | 11.3 | 17.7 | 0.00 | 0.00 | 0.00 | 100 | 1005.9 |
| 20260506105507 | 21 | 144 | 9.7 | 14.5 | 0.00 | 0.00 | 0.00 | 100 | 1005.9 |
| 20260506105107 | 21 | 163 | 4.8 | 12.9 | 0.00 | 0.00 | 0.00 | 100 | 1005.9 |
| 20260506104506 | 21 | 183 | 4.8 | 12.9 | 0.00 | 0.00 | 0.00 | 100 | 1006.0 |
| 20260506104008 | 21 | 172 | 8.0 | 14.5 | 0.00 | 0.00 | 0.00 | 100 | 1005.9 |
| 20260506103507 | 21 | 155 | 4.8 | 14.5 | 0.00 | 0.00 | 0.00 | 100 | 1005.8 |
| 20260506103006 | 21 | 142 | 4.8 | 12.9 | 0.00 | 0.00 | 0.00 | 99 | 1005.9 |
| 20260506102507 | 21 | 190 | 6.4 | 16.1 | 0.00 | 0.00 | 0.00 | 99 | 1005.9 |
| 20260506102008 | 21 | 191 | 9.7 | 19.3 | 0.00 | 0.00 | 0.00 | 99 | 1005.8 |
| 20260506101505 | 21 | 185 | 12.9 | 22.5 | 0.00 | 0.00 | 0.00 | 99 | 1005.7 |
| 20260506101004 | 21 | 173 | 12.9 | 22.5 | 0.00 | 0.00 | 0.00 | 99 | 1005.6 |
| 20260506100504 | 21 | 178 | 11.3 | 25.7 | 0.00 | 0.00 | 0.00 | 99 | 1005.8 |
| 20260506100004 | 21 | 194 | 11.3 | 19.3 | 0.00 | 0.00 | 0.00 | 99 | 1005.8 |
| 20260506095503 | 21 | 178 | 9.7 | 24.1 | 0.00 | 0.00 | 0.00 | 99 | 1005.7 |
| 20260506095004 | 21 | 197 | 12.9 | 24.1 | 0.00 | 0.00 | 0.00 | 99 | 1005.7 |
| 20260506094504 | 21 | 169 | 11.3 | 19.3 | 0.00 | 0.00 | 0.00 | 99 | 1005.7 |
| 20260506094003 | 21 | 182 | 11.3 | 19.3 | 0.00 | 0.00 | 0.00 | 99 | 1005.8 |
| 20260506093502 | 21 | 145 | 11.3 | 19.3 | 0.00 | 0.00 | 0.00 | 99 | 1005.8 |
| 20260506093002 | 21 | 189 | 11.3 | 22.5 | 0.00 | 0.00 | 0.00 | 99 | 1005.9 |
| 20260506092501 | 21 | 180 | 12.9 | 27.4 | 0.00 | 0.00 | 0.00 | 99 | 1005.9 |
| 20260506092002 | 21 | 167 | 16.1 | 27.4 | 0.00 | 0.00 | 0.00 | 99 | 1005.7 |
| 20260506091503 | 21 | 174 | 8.0 | 20.9 | 0.00 | 0.00 | 0.00 | 99 | 1005.8 |
| 20260506091005 | 21 | 182 | 9.7 | 27.4 | 0.00 | 0.00 | 0.00 | 99 | 1005.8 |
| 20260506090600 | 21 | 218 | 14.5 | 27.4 | 0.00 | 0.00 | 0.00 | 99 | 1005.8 |
| 20260506090111 | 21 | 167 | 14.5 | 24.1 | 0.00 | 0.00 | 0.00 | 99 | 1005.8 |
| 20260506085559 | 21 | 180 | 14.5 | 24.1 | 0.00 | 0.00 | 0.00 | 99 | 1005.8 |
| 20260506085059 | 21 | 172 | 14.5 | 25.7 | 0.00 | 0.00 | 0.00 | 99 | 1005.7 |
| 20260506084632 | 21 | 167 | 14.5 | 27.4 | 0.00 | 0.00 | 0.00 | 99 | 1005.7 |
| 20260506084100 | 21 | 192 | 12.9 | 27.4 | 0.00 | 0.00 | 0.00 | 99 | 1005.6 |
| 20260506083558 | 21 | 202 | 12.9 | 20.9 | 0.00 | 0.00 | 0.00 | 99 | 1005.5 |
| 20260506083059 | 21 | 167 | 9.7 | 22.5 | 0.00 | 0.00 | 0.00 | 99 | 1005.5 |
| 20260506082557 | 21 | 211 | 8.0 | 27.4 | 0.00 | 0.00 | 0.00 | 98 | 1005.5 |
| 20260506082056 | 21 | 178 | 9.7 | 25.7 | 0.00 | 0.00 | 0.00 | 98 | 1005.5 |
| 20260506081611 | 21 | 153 | 16.1 | 27.4 | 0.00 | 0.00 | 0.00 | 98 | 1005.5 |
| 20260506081055 | 21 | 184 | 14.5 | 27.4 | 0.00 | 0.00 | 0.00 | 98 | 1005.5 |
| 20260506080554 | 21 | 186 | 14.5 | 25.7 | 0.00 | 0.00 | 0.00 | 98 | 1005.6 |
| 20260506073047 | 22 | 172 | 11.3 | 19.3 | 0.00 | 0.00 | 0.00 | 97 | 1005.8 |
| 20260506072548 | 22 | 144 | 11.3 | 19.3 | 0.00 | 0.00 | 0.00 | 97 | 1005.9 |
| 20260506072046 | 22 | 132 | 8.0 | 19.3 | 0.00 | 0.00 | 0.00 | 97 | 1005.9 |
| 20260506071544 | 22 | 144 | 12.9 | 19.3 | 0.00 | 0.00 | 0.00 | 96 | 1006.0 |
| 20260506071044 | 22 | 153 | 9.7 | 20.9 | 0.00 | 0.00 | 0.00 | 96 | 1006.1 |
| 20260506070542 | 22 | 180 | 14.5 | 20.9 | 0.00 | 0.00 | 0.00 | 96 | 1006.2 |
| 20260506062037 | 22 | 166 | 8.0 | 12.9 | 0.00 | 0.00 | 0.00 | 96 | 1006.3 |
| 20260506061537 | 22 | 160 | 6.4 | 14.5 | 0.00 | 0.00 | 0.00 | 96 | 1006.4 |
| 20260506061037 | 22 | 151 | 6.4 | 16.1 | 0.00 | 0.00 | 0.00 | 96 | 1006.3 |
| 20260506060536 | 22 | 136 | 6.4 | 19.3 | 0.00 | 0.00 | 0.00 | 96 | 1006.3 |
| 20260506051029 | 22 | 117 | 9.7 | 19.3 | 0.00 | 0.00 | 0.00 | 95 | 1006.1 |
| 20260506050527 | 22 | 123 | 11.3 | 17.7 | 0.00 | 0.00 | 0.00 | 95 | 1006.2 |
| 20260506045027 | 22 | 167 | 11.3 | 20.9 | 0.00 | 0.00 | 0.00 | 93 | 1006.3 |
| 20260506044525 | 22 | 106 | 9.7 | 20.9 | 0.00 | 0.00 | 0.00 | 93 | 1006.3 |
| 20260506044025 | 22 | 127 | 12.9 | 20.9 | 0.00 | 0.00 | 0.00 | 92 | 1006.3 |
| 20260506043525 | 23 | 113 | 6.4 | 20.9 | 0.00 | 0.00 | 0.00 | 92 | 1006.3 |
| 20260506043026 | 23 | 113 | 9.7 | 22.5 | 0.00 | 0.00 | 0.00 | 91 | 1006.3 |
| 20260506042526 | 23 | 122 | 12.9 | 22.5 | 0.00 | 0.00 | 0.00 | 91 | 1006.2 |
| 20260506042026 | 23 | 136 | 9.7 | 16.1 | 0.00 | 0.00 | 0.00 | 90 | 1006.2 |
| 20260506041536 | 23 | 121 | 9.7 | 17.7 | 0.00 | 0.00 | 0.00 | 90 | 1006.2 |
| 20260506041025 | 23 | 148 | 8.0 | 16.1 | 0.00 | 0.00 | 0.00 | 89 | 1006.0 |
| 20260506040524 | 23 | 121 | 11.3 | 17.7 | 0.00 | 0.00 | 0.00 | 89 | 1005.9 |
| 20260506040024 | 23 | 132 | 9.7 | 17.7 | 0.00 | 0.00 | 0.00 | 89 | 1005.9 |
| 20260506035524 | 23 | 144 | 11.3 | 20.9 | 0.00 | 0.00 | 0.00 | 89 | 1005.9 |
| 20260506035023 | 23 | 147 | 14.5 | 19.3 | 0.00 | 0.00 | 0.00 | 89 | 1006.0 |
| 20260506034533 | 23 | 139 | 9.7 | 16.1 | 0.00 | 0.00 | 0.00 | 89 | 1005.8 |
| 20260506034028 | 23 | 138 | 9.7 | 17.7 | 0.00 | 0.00 | 0.00 | 89 | 1005.7 |
| 20260506033529 | 23 | 150 | 8.0 | 17.7 | 0.00 | 0.00 | 0.00 | 89 | 1005.7 |
| 20260506033023 | 23 | 147 | 6.4 | 12.9 | 0.00 | 0.00 | 0.00 | 89 | 1005.6 |
| 20260506032523 | 23 | 142 | 8.0 | 12.9 | 0.00 | 0.00 | 0.00 | 89 | 1005.6 |
| 20260506032023 | 23 | 89 | 4.8 | 11.3 | 0.00 | 0.00 | 0.00 | 88 | 1005.6 |
| 20260506031523 | 23 | 115 | 3.2 | 11.3 | 0.00 | 0.00 | 0.00 | 87 | 1005.5 |
| 20260506031024 | 23 | 119 | 3.2 | 14.5 | 0.00 | 0.00 | 0.00 | 87 | 1005.5 |
| 20260506030525 | 23 | 118 | 6.4 | 14.5 | 0.00 | 0.00 | 0.00 | 87 | 1005.4 |
| 20260506030026 | 23 | 131 | 6.4 | 12.9 | 0.00 | 0.00 | 0.00 | 87 | 1005.2 |
| 20260506025526 | 23 | 147 | 6.4 | 12.9 | 0.00 | 0.00 | 0.00 | 87 | 1005.2 |
| 20260506025021 | 23 | 172 | 4.8 | 12.9 | 0.00 | 0.00 | 0.00 | 86 | 1005.1 |
| 20260506024525 | 23 | 140 | 8.0 | 12.9 | 0.00 | 0.00 | 0.00 | 86 | 1005.1 |
| 20260506024022 | 23 | 161 | 6.4 | 17.7 | 0.00 | 0.00 | 0.00 | 86 | 1004.9 |
| 20260506023526 | 23 | 162 | 9.7 | 17.7 | 0.00 | 0.00 | 0.00 | 87 | 1004.9 |
| 20260506023021 | 23 | 165 | 6.4 | 12.9 | 0.00 | 0.00 | 0.00 | 87 | 1004.9 |
| 20260506022521 | 23 | 138 | 8.0 | 12.9 | 0.00 | 0.00 | 0.00 | 87 | 1005.0 |
| 20260506022020 | 23 | 150 | 6.4 | 11.3 | 0.00 | 0.00 | 0.00 | 87 | 1004.7 |
| 20260506021520 | 23 | 150 | 8.0 | 11.3 | 0.00 | 0.00 | 0.00 | 86 | 1004.7 |
| 20260506021020 | 23 | 196 | 1.6 | 4.8 | 0.00 | 0.00 | 0.00 | 86 | 1004.5 |
| 20260506020523 | 23 | 197 | 1.6 | 9.7 | 0.00 | 0.00 | 0.00 | 86 | 1004.5 |
| 20260506020020 | 23 | 186 | 3.2 | 9.7 | 0.00 | 0.00 | 0.00 | 85 | 1004.4 |
| 20260506015519 | 23 | 165 | 6.4 | 8.0 | 0.00 | 0.00 | 0.00 | 85 | 1004.3 |
| 20260506015022 | 24 | 188 | 4.8 | 9.7 | 0.00 | 0.00 | 0.00 | 84 | 1004.3 |
| 20260506014522 | 24 | 163 | 4.8 | 12.9 | 0.00 | 0.00 | 0.00 | 84 | 1004.3 |
| 20260506014019 | 24 | 164 | 6.4 | 12.9 | 0.00 | 0.00 | 0.00 | 84 | 1004.2 |
| 20260506013519 | 24 | 160 | 8.0 | 11.3 | 0.00 | 0.00 | 0.00 | 83 | 1004.2 |
| 20260506013035 | 25 | 169 | 8.0 | 12.9 | 0.00 | 0.00 | 0.00 | 83 | 1004.2 |
| 20260506012519 | 25 | 176 | 8.0 | 12.9 | 0.00 | 0.00 | 0.00 | 82 | 1004.1 |
| 20260506012019 | 25 | 165 | 6.4 | 12.9 | 0.00 | 0.00 | 0.00 | 82 | 1004.0 |
| 20260506011525 | 25 | 156 | 6.4 | 11.3 | 0.00 | 0.00 | 0.00 | 80 | 1003.9 |
| 20260506011018 | 25 | 146 | 3.2 | 11.3 | 0.00 | 0.00 | 0.00 | 79 | 1003.8 |
| 20260506010518 | 26 | 144 | 4.8 | 9.7 | 0.00 | 0.00 | 0.00 | 79 | 1003.8 |
| 20260506010021 | 26 | 155 | 4.8 | 11.3 | 0.00 | 0.00 | 0.00 | 78 | 1003.7 |
| 20260506005517 | 26 | 165 | 4.8 | 11.3 | 0.00 | 0.00 | 0.00 | 77 | 1003.7 |
| 20260506005017 | 26 | 153 | 4.8 | 11.3 | 0.00 | 0.00 | 0.00 | 77 | 1003.7 |
| 20260506004518 | 26 | 186 | 4.8 | 11.3 | 0.00 | 0.00 | 0.00 | 76 | 1003.8 |
| 20260506004017 | 27 | 163 | 4.8 | 11.3 | 0.00 | 0.00 | 0.00 | 75 | 1003.8 |
| 20260506003517 | 27 | 187 | 4.8 | 9.7 | 0.00 | 0.00 | 0.00 | 75 | 1003.8 |
| 20260506003016 | 27 | 147 | 1.6 | 9.7 | 0.00 | 0.00 | 0.00 | 75 | 1003.8 |
| 20260506002516 | 27 | 170 | 4.8 | 11.3 | 0.00 | 0.00 | 0.00 | 74 | 1003.8 |
| 20260506002016 | 27 | 154 | 6.4 | 11.3 | 0.00 | 0.00 | 0.00 | 74 | 1003.8 |
| 20260506001516 | 27 | 186 | 3.2 | 6.4 | 0.00 | 0.00 | 0.00 | 74 | 1003.9 |
| 20260506001016 | 27 | 186 | 3.2 | 8.0 | 0.00 | 0.00 | 0.00 | 74 | 1003.9 |
| 20260506000514 | 27 | 170 | 3.2 | 11.3 | 0.00 | 0.00 | 0.00 | 74 | 1003.9 |
| 20260506000014 | 27 | 207 | 4.8 | 11.3 | 0.00 | 0.00 | 0.00 | 73 | 1003.9 |
| 20260505235514 | 27 | 204 | 4.8 | 11.3 | 0.00 | 0.00 | 0.00 | 72 | 1003.8 |
| 20260505235017 | 27 | 189 | 3.2 | 9.7 | 0.00 | 0.00 | 0.00 | 72 | 1003.8 |
| 20260505234514 | 27 | 206 | 6.4 | 11.3 | 0.00 | 0.00 | 0.00 | 72 | 1003.9 |
| 20260505234014 | 27 | 207 | 4.8 | 12.9 | 0.00 | 0.00 | 0.00 | 71 | 1003.9 |
| 20260505233513 | 27 | 202 | 6.4 | 12.9 | 0.00 | 0.00 | 0.00 | 71 | 1003.8 |
| 20260505233021 | 27 | 217 | 6.4 | 14.5 | 0.00 | 0.00 | 0.00 | 72 | 1003.9 |
| 20260505232514 | 27 | 199 | 6.4 | 14.5 | 0.00 | 0.00 | 0.00 | 71 | 1003.8 |
| 20260505232013 | 27 | 250 | 4.8 | 17.7 | 0.00 | 0.00 | 0.00 | 71 | 1003.9 |
| 20260505231514 | 27 | 207 | 8.0 | 16.1 | 0.00 | 0.00 | 0.00 | 70 | 1003.8 |
| 20260505231014 | 28 | 186 | 9.7 | 17.7 | 0.00 | 0.00 | 0.00 | 70 | 1003.7 |
| 20260505230514 | 28 | 180 | 9.7 | 14.5 | 0.00 | 0.00 | 0.00 | 69 | 1003.8 |
| 20260505230012 | 28 | 220 | 8.0 | 14.5 | 0.00 | 0.00 | 0.00 | 69 | 1003.8 |
| 20260505225511 | 28 | 212 | 6.4 | 14.5 | 0.00 | 0.00 | 0.00 | 68 | 1003.7 |
| 20260505225011 | 28 | 201 | 4.8 | 14.5 | 0.00 | 0.00 | 0.00 | 69 | 1003.8 |
| 20260505224512 | 27 | 187 | 6.4 | 17.7 | 0.00 | 0.00 | 0.00 | 69 | 1003.9 |
| 20260505224010 | 27 | 201 | 8.0 | 17.7 | 0.00 | 0.00 | 0.00 | 69 | 1003.9 |
| 20260505223509 | 28 | 218 | 6.4 | 16.1 | 0.00 | 0.00 | 0.00 | 69 | 1003.9 |
| 20260505223008 | 28 | 202 | 9.7 | 19.3 | 0.00 | 0.00 | 0.00 | 69 | 1003.9 |
| 20260505222512 | 28 | 178 | 8.0 | 19.3 | 0.00 | 0.00 | 0.00 | 70 | 1004.0 |
| 20260505222008 | 28 | 215 | 11.3 | 16.1 | 0.00 | 0.00 | 0.00 | 68 | 1004.1 |
| 20260505221508 | 28 | 221 | 9.7 | 16.1 | 0.00 | 0.00 | 0.00 | 68 | 1004.0 |
| 20260505221010 | 28 | 228 | 6.4 | 16.1 | 0.00 | 0.00 | 0.00 | 69 | 1004.0 |
| 20260505220506 | 28 | 233 | 6.4 | 17.7 | 0.00 | 0.00 | 0.00 | 69 | 1004.1 |
| 20260505220015 | 28 | 196 | 9.7 | 17.7 | 0.00 | 0.00 | 0.00 | 70 | 1004.1 |
| 20260505215506 | 28 | 246 | 11.3 | 16.1 | 0.00 | 0.00 | 0.00 | 70 | 1004.3 |
| 20260505215005 | 28 | 180 | 11.3 | 16.1 | 0.00 | 0.00 | 0.00 | 71 | 1004.2 |
| 20260505214505 | 27 | 205 | 8.0 | 16.1 | 0.00 | 0.00 | 0.00 | 71 | 1004.2 |
| 20260505214004 | 27 | 257 | 8.0 | 16.1 | 0.00 | 0.00 | 0.00 | 71 | 1004.2 |
| 20260505213503 | 27 | 221 | 8.0 | 16.1 | 0.00 | 0.00 | 0.00 | 72 | 1004.3 |
| 20260505213003 | 27 | 245 | 8.0 | 17.7 | 0.00 | 0.00 | 0.00 | 71 | 1004.3 |
| 20260505212503 | 27 | 239 | 8.0 | 17.7 | 0.00 | 0.00 | 0.00 | 71 | 1004.5 |
| 20260505212003 | 28 | 236 | 11.3 | 17.7 | 0.00 | 0.00 | 0.00 | 69 | 1004.4 |
| 20260505211502 | 28 | 217 | 4.8 | 17.7 | 0.00 | 0.00 | 0.00 | 69 | 1004.5 |
| 20260505211001 | 27 | 226 | 11.3 | 17.7 | 0.00 | 0.00 | 0.00 | 71 | 1004.6 |
| 20260505210601 | 27 | 217 | 11.3 | 17.7 | 0.00 | 0.00 | 0.00 | 69 | 1004.5 |
| 20260505210107 | 27 | 163 | 9.7 | 16.1 | 0.00 | 0.00 | 0.00 | 73 | 1004.6 |
| 20260505205559 | 27 | 225 | 4.8 | 24.1 | 0.00 | 0.00 | 0.00 | 70 | 1004.7 |
| 20260505205058 | 27 | 227 | 14.5 | 25.7 | 0.00 | 0.00 | 0.00 | 70 | 1004.7 |
| 20260505204604 | 27 | 222 | 16.1 | 27.4 | 0.00 | 0.00 | 0.00 | 69 | 1004.9 |
| 20260505204056 | 27 | 228 | 17.7 | 25.7 | 0.00 | 0.00 | 0.00 | 71 | 1004.9 |
| 20260505203559 | 27 | 253 | 11.3 | 22.5 | 0.00 | 0.00 | 0.00 | 72 | 1005.0 |
| 20260505203107 | 27 | 245 | 11.3 | 22.5 | 0.00 | 0.00 | 0.00 | 72 | 1005.0 |
| 20260505202555 | 27 | 225 | 9.7 | 20.9 | 0.00 | 0.00 | 0.00 | 72 | 1005.0 |
| 20260505202056 | 27 | 194 | 11.3 | 22.5 | 0.00 | 0.00 | 0.00 | 71 | 1005.1 |
| 20260505201555 | 27 | 194 | 9.7 | 22.5 | 0.00 | 0.00 | 0.00 | 71 | 1005.1 |
| 20260505201057 | 27 | 213 | 9.7 | 20.9 | 0.00 | 0.00 | 0.00 | 73 | 1005.2 |
| 20260505200552 | 27 | 211 | 9.7 | 19.3 | 0.00 | 0.00 | 0.00 | 73 | 1005.3 |
| 20260505200101 | 27 | 194 | 9.7 | 19.3 | 0.00 | 0.00 | 0.00 | 72 | 1005.3 |
| 20260505195551 | 27 | 227 | 8.0 | 14.5 | 0.00 | 0.00 | 0.00 | 73 | 1005.4 |
| 20260505195050 | 27 | 214 | 4.8 | 12.9 | 0.00 | 0.00 | 0.00 | 73 | 1005.5 |
| 20260505194548 | 27 | 240 | 8.0 | 19.3 | 0.00 | 0.00 | 0.00 | 74 | 1005.5 |
| 20260505194046 | 26 | 190 | 11.3 | 17.7 | 0.00 | 0.00 | 0.00 | 76 | 1005.6 |
| 20260505193546 | 26 | 208 | 8.0 | 14.5 | 0.00 | 0.00 | 0.00 | 75 | 1005.7 |
| 20260505193058 | 26 | 145 | 8.0 | 20.9 | 0.00 | 0.00 | 0.00 | 74 | 1005.7 |
| 20260505192548 | 26 | 206 | 14.5 | 19.3 | 0.00 | 0.00 | 0.00 | 75 | 1005.7 |
| 20260505192043 | 26 | 213 | 4.8 | 16.1 | 0.00 | 0.00 | 0.00 | 77 | 1005.8 |
| 20260505191544 | 26 | 239 | 9.7 | 17.7 | 0.00 | 0.00 | 0.00 | 77 | 1006.0 |
| 20260505191042 | 26 | 190 | 11.3 | 17.7 | 0.00 | 0.00 | 0.00 | 78 | 1006.0 |
| 20260505190543 | 26 | 223 | 8.0 | 14.5 | 0.00 | 0.00 | 0.00 | 78 | 1006.0 |
| 20260505190044 | 26 | 184 | 9.7 | 20.9 | 0.00 | 0.00 | 0.00 | 80 | 1006.0 |
| 20260505185538 | 25 | 175 | 8.0 | 20.9 | 0.00 | 0.00 | 0.00 | 81 | 1006.1 |
| 20260505185038 | 25 | 196 | 9.7 | 20.9 | 0.00 | 0.00 | 0.00 | 81 | 1006.2 |
| 20260505184536 | 25 | 197 | 8.0 | 19.3 | 0.00 | 0.00 | 0.00 | 81 | 1006.2 |
| 20260505184035 | 25 | 249 | 11.3 | 19.3 | 0.00 | 0.00 | 0.00 | 82 | 1006.4 |
| 20260505183537 | 25 | 236 | 9.7 | 19.3 | 0.00 | 0.00 | 0.00 | 82 | 1006.5 |
| 20260505183037 | 24 | 234 | 8.0 | 14.5 | 0.00 | 0.00 | 0.00 | 83 | 1006.6 |
| 20260505182531 | 23 | 203 | 8.0 | 17.7 | 0.00 | 0.00 | 0.00 | 85 | 1006.6 |
| 20260505182031 | 23 | 225 | 11.3 | 17.7 | 0.00 | 0.00 | 0.00 | 85 | 1006.8 |
| 20260505181530 | 23 | 142 | 6.4 | 16.1 | 0.00 | 0.00 | 0.00 | 87 | 1006.9 |
| 20260505181029 | 23 | 207 | 6.4 | 16.1 | 0.00 | 0.00 | 0.00 | 89 | 1006.9 |
| 20260505180527 | 22 | 223 | 9.7 | 16.1 | 0.00 | 0.00 | 0.00 | 88 | 1006.9 |
| 20260505180025 | 22 | 267 | 6.4 | 16.1 | 0.00 | 0.00 | 0.00 | 92 | 1007.0 |
| 20260505175524 | 22 | 219 | 8.0 | 19.3 | 0.00 | 0.00 | 0.00 | 93 | 1007.0 |
| 20260505175023 | 22 | 246 | 12.9 | 19.3 | 0.00 | 0.00 | 0.00 | 96 | 1007.0 |
| 20260505174522 | 22 | 227 | 6.4 | 12.9 | 0.00 | 0.00 | 0.00 | 99 | 1007.0 |
| 20260505174021 | 21 | 198 | 3.2 | 12.9 | 0.00 | 0.00 | 0.00 | 100 | 1007.1 |
| 20260505173521 | 21 | 222 | 6.4 | 12.9 | 0.00 | 0.00 | 0.00 | 100 | 1007.1 |
| 20260505173018 | 20 | 257 | 8.0 | 12.9 | 0.00 | 0.00 | 0.00 | 100 | 1007.2 |
| 20260505172518 | 20 | 240 | 4.8 | 11.3 | 0.00 | 0.00 | 0.00 | 100 | 1007.2 |
| 20260505172022 | 20 | 238 | 6.4 | 12.9 | 0.00 | 0.00 | 0.00 | 100 | 1007.3 |
| 20260505171519 | 20 | 252 | 6.4 | 12.9 | 0.00 | 0.00 | 0.00 | 100 | 1007.3 |
| 20260505171021 | 20 | 250 | 4.8 | 12.9 | 0.00 | 0.00 | 0.00 | 100 | 1007.3 |
| 20260505170517 | 20 | 233 | 6.4 | 12.9 | 0.00 | 0.00 | 0.00 | 100 | 1007.2 |
| 20260505170017 | 20 | 232 | 9.7 | 16.1 | 0.00 | 0.00 | 0.00 | 100 | 1007.1 |
| 20260505165517 | 20 | 224 | 9.7 | 16.1 | 0.00 | 0.00 | 0.00 | 100 | 1007.1 |
| 20260505165019 | 20 | 249 | 8.0 | 16.1 | 0.00 | 0.00 | 0.00 | 100 | 1007.0 |
| 20260505164517 | 20 | 215 | 12.9 | 16.1 | 0.00 | 0.00 | 0.00 | 100 | 1007.1 |
| 20260505164017 | 19 | 210 | 9.7 | 17.7 | 0.00 | 0.00 | 0.00 | 100 | 1007.1 |
| 20260505163518 | 19 | 205 | 11.3 | 17.7 | 0.00 | 0.00 | 0.00 | 100 | 1007.0 |
| 20260505163018 | 19 | 213 | 8.0 | 12.9 | 0.00 | 0.00 | 0.00 | 100 | 1007.0 |
| 20260505162525 | 19 | 211 | 6.4 | 14.5 | 0.00 | 0.00 | 0.00 | 100 | 1007.1 |
| 20260505162015 | 19 | 187 | 6.4 | 14.5 | 0.00 | 0.00 | 0.00 | 100 | 1007.0 |
| 20260505161533 | 19 | 246 | 8.0 | 16.1 | 0.00 | 0.00 | 0.00 | 100 | 1006.9 |
| 20260505161015 | 19 | 209 | 8.0 | 16.1 | 0.00 | 0.00 | 0.00 | 100 | 1006.8 |
| 20260505160518 | 19 | 218 | 12.9 | 16.1 | 0.00 | 0.00 | 0.00 | 100 | 1006.7 |
| 20260505153014 | 18 | 215 | 9.7 | 20.9 | 0.00 | 0.00 | 0.00 | 100 | 1007.0 |
| 20260505152512 | 18 | 215 | 12.9 | 20.9 | 0.00 | 0.00 | 0.00 | 100 | 1007.0 |
| 20260505152012 | 18 | 217 | 9.7 | 17.7 | 0.00 | 0.00 | 0.00 | 100 | 1007.1 |
| 20260505151511 | 18 | 234 | 12.9 | 17.7 | 0.00 | 0.00 | 0.00 | 100 | 1006.9 |
| 20260505151012 | 18 | 219 | 11.3 | 24.1 | 0.00 | 0.00 | 0.00 | 100 | 1006.9 |
| 20260505150513 | 18 | 215 | 9.7 | 24.1 | 0.00 | 0.00 | 0.00 | 100 | 1006.9 |
| 20260505140507 | 18 | 211 | 16.1 | 30.6 | 0.00 | 0.00 | 0.00 | 99 | 1006.7 |